Location: Unspecified
(0.0000°N, 0.0000°E)
Time: 01:26:09
(UTC+00:00)

Envisat - Pass Details

Date: 26 April 2018
Orbit: 764 x 766 km, 98.2° (Epoch: 19 July)

Event Time Altitude Azimuth Distance (km) Brightness Sun altitude
Exits shadow 19:14:35 28° 70° (ENE) 1,410 3.9 -18.6°
Drops below altitude 10° 19:18:28 10° 20° (NNE) 2,290 5.4 -19.6°
Sets 19:21:02 0° 8° (N) 3,213 6.3 -20.2°
